Temperature
15 12 11 12 12 13 13 12 12 11 8 7 6 6 5 5 4 4 4 4 4 4 3 2 1 0 -1 -1 -1 -1 -1 -1 -2 -2 -3 -3 -3 -4 -5 -6 -7 -7 -8 -8
12 12 12 12 12 12 12 12 12 10 8 8 6 5 4 4 4 4 5 5 4 4 3 2 1 -0 -1 -1 -1 -1 -2 -2 -3 -3 -4 -5 -5 -5 -6 -7 -7 -8 -8 -9
13 12 12 12 13 13 13 13 12 11 8 7 7 7 5 4 4 4 5 5 4 4 3 1 0 -1 -1 -1 -1 -2 -2 -3 -3 -4 -5 -5 -5 -6 -7 -8 -8 -9 -9 -10
12 12 13 13 12 13 13 13 12 10 9 7 8 8 7 3 3 3 4 4 4 3 2 1 -0 -1 -1 -1 -2 -2 -3 -3 -4 -5 -5 -6 -7 -8 -8 -9 -9 -9 -10 -10
12 12 12 13 12 12 12 12 11 9 9 8 7 7 7 3 3 2 3 4 4 3 1 1 -0 -1 -1 -2 -2 -3 -3 -4 -5 -5 -6 -7 -8 -9 -9 -9 -9 -10 -10 -11
12 12 11 12 11 11 11 10 9 7 7 9 8 7 8 4 3 3 3 4 4 2 1 1 -0 -1 -2 -2 -2 -3 -3 -4 -5 -6 -7 -8 -9 -9 -9 -9 -10 -11 -12 -12
14 13 11 11 12 11 11 11 10 11 10 10 8 8 8 7 3 4 4 4 4 2 1 0 -0 -1 -2 -2 -2 -3 -4 -5 -5 -6 -7 -8 -8 -9 -9 -10 -11 -12 -13 -13
14 13 12 11 12 12 11 12 12 12 10 8 8 7 7 5 4 4 4 4 3 2 1 0 -1 -2 -2 -2 -3 -4 -4 -5 -6 -7 -7 -8 -8 -9 -10 -11 -12 -13 -13 -13
13 13 11 11 11 11 11 8 9 8 8 7 7 7 6 4 3 2 3 3 2 1 0 -1 -1 -2 -2 -3 -4 -4 -5 -5 -6 -7 -7 -7 -8 -9 -11 -12 -13 -13 -13 -13
11 12 12 11 11 10 9 7 6 8 10 9 8 7 8 7 3 1 1 1 2 1 -0 -1 -1 -2 -2 -4 -4 -5 -5 -6 -6 -7 -7 -8 -9 -10 -11 -12 -13 -13 -13 -13
10 11 11 11 10 10 9 9 7 6 7 8 7 9 8 7 5 2 2 2 2 1 -0 -1 -1 -2 -3 -4 -5 -5 -5 -6 -6 -7 -7 -8 -9 -10 -12 -12 -13 -13 -13 -13
8 8 9 10 9 9 10 9 7 9 8 6 5 8 8 5 5 4 4 3 2 0 -1 -1 -1 -2 -3 -4 -5 -5 -6 -6 -6 -7 -8 -9 -10 -11 -12 -12 -13 -13 -13 -12
8 9 11 12 11 9 9 8 7 6 5 4 4 9 6 3 4 4 3 2 1 0 -1 -1 -2 -3 -4 -4 -5 -5 -6 -6 -6 -7 -8 -9 -10 -11 -12 -12 -13 -13 -13 -12
8 8 10 13 13 10 9 8 6 6 6 5 5 8 8 4 2 2 2 2 1 0 -1 -1 -2 -3 -4 -4 -5 -5 -6 -6 -6 -7 -8 -9 -10 -11 -12 -12 -13 -13 -13 -13
7 8 8 7 7 8 8 8 6 6 6 6 7 6 9 7 4 4 3 2 0 -0 -1 -1 -2 -3 -4 -4 -5 -5 -5 -6 -6 -7 -8 -9 -10 -11 -12 -12 -13 -13 -13 -13
5 7 8 8 8 7 6 6 6 6 6 5 6 7 7 5 4 3 2 1 1 0 -1 -2 -3 -3 -4 -4 -4 -5 -5 -6 -6 -7 -8 -9 -9 -10 -11 -12 -13 -13 -13 -13
5 7 9 8 7 8 9 9 6 6 5 6 7 8 6 3 2 3 3 2 2 1 -1 -2 -2 -3 -3 -4 -4 -5 -5 -6 -6 -7 -8 -9 -9 -10 -11 -12 -13 -13 -13 -13
5 6 5 6 8 13 13 9 7 8 7 5 5 6 5 5 4 4 4 4 2 0 -1 -2 -2 -3 -3 -4 -4 -5 -6 -6 -6 -7 -8 -8 -9 -10 -11 -12 -13 -13 -13 -13
5 5 5 6 8 9 10 8 7 7 8 7 6 6 5 2 2 2 3 3 2 0 -1 -2 -2 -3 -3 -4 -4 -5 -5 -6 -6 -7 -8 -8 -9 -10 -10 -11 -12 -13 -13 -13
3 3 4 4 9 11 13 8 7 8 9 10 8 7 2 -0 1 3 5 2 1 -0 -1 -2 -2 -3 -3 -4 -4 -5 -5 -6 -6 -7 -8 -8 -9 -9 -10 -11 -12 -12 -13 -13
4 3 4 4 6 9 9 7 8 10 12 13 12 10 5 2 5 6 5 3 1 0 -1 -2 -2 -2 -3 -4 -4 -5 -5 -6 -6 -7 -7 -8 -9 -9 -10 -10 -11 -12 -12 -12
5 3 3 3 5 8 8 5 7 11 14 13 13 12 10 9 6 5 5 3 1 0 -1 -2 -2 -2 -3 -3 -4 -5 -5 -6 -6 -7 -7 -8 -9 -9 -10 -10 -10 -11 -11 -12
5 7 6 7 10 12 11 13 15 14 14 13 12 12 10 8 6 5 4 2 1 0 -1 -1 -2 -2 -3 -3 -4 -4 -5 -6 -6 -6 -7 -8 -8 -9 -10 -10 -10 -10 -11 -11
5 5 5 4 7 10 11 13 14 14 14 13 12 10 10 9 7 5 4 2 1 0 -1 -1 -2 -2 -3 -3 -4 -4 -5 -5 -6 -6 -7 -7 -8 -8 -9 -10 -10 -10 -10 -11
7 3 4 5 7 11 15 17 18 17 15 14 12 10 9 8 7 6 4 3 2 1 -0 -1 -2 -2 -3 -3 -4 -4 -5 -5 -6 -6 -7 -7 -8 -8 -8 -9 -10 -10 -10 -11
6 6 7 12 14 12 17 18 17 16 15 14 13 11 8 7 7 6 4 3 2 1 -0 -1 -2 -2 -2 -3 -4 -4 -5 -5 -6 -6 -6 -7 -7 -7 -8 -8 -8 -9 -10 -10
Wind_Speed
7 8 4 3 2 1 3 4 2 2 6 7 10 10 7 9 9 10 9 9 9 8 5 4 2 1 3 4 6 6 7 8 10 7 7 7 8 6 11 14 18 19 19 19
8 5 4 3 2 4 5 3 2 1 4 5 6 9 6 8 9 9 10 11 10 7 5 5 4 2 3 5 6 7 8 7 10 8 8 7 7 6 11 15 17 18 19 19
6 1 3 4 4 4 2 2 3 3 2 2 4 8 4 5 6 6 8 8 8 9 8 6 4 3 2 5 6 8 8 8 11 13 11 11 5 4 5 7 8 17 20 20
5 3 1 4 3 2 1 2 2 3 1 4 2 7 6 5 6 8 9 8 9 7 7 4 2 1 3 4 6 6 7 8 11 13 8 9 10 9 9 7 9 18 19 19
2 2 3 2 0 0 2 2 1 3 2 4 1 2 7 1 7 11 10 10 9 8 7 4 2 3 4 5 6 6 7 7 10 12 8 8 8 7 9 8 9 9 15 18
1 0 1 1 2 1 1 4 5 5 4 3 3 4 8 5 8 8 9 10 10 8 6 3 3 4 4 4 5 6 8 8 8 9 8 9 9 10 12 13 10 10 9 13
2 1 1 1 0 4 5 4 6 6 4 5 2 3 10 6 7 6 8 11 9 8 6 3 2 3 4 6 7 8 9 9 9 9 9 9 9 9 11 13 12 13 11 11
1 5 1 2 2 2 3 3 4 3 5 7 3 7 8 1 0 1 4 7 8 8 5 4 3 1 3 6 7 8 9 9 9 9 9 8 8 7 8 10 11 12 11 11
3 5 1 1 1 3 3 3 2 5 2 5 7 9 8 3 1 2 5 7 9 8 7 6 3 1 4 6 6 8 8 9 9 9 10 8 7 8 10 10 10 9 12 16
0 4 2 1 3 4 3 8 5 3 2 6 8 7 6 8 9 8 8 9 9 8 7 6 3 1 3 4 6 8 8 8 9 9 9 11 9 11 12 11 12 11 15 18
1 1 4 1 5 6 4 4 4 4 3 3 6 9 7 8 8 12 13 11 10 9 8 6 3 1 3 5 6 7 8 8 8 8 8 9 9 11 12 10 11 13 14 17
3 3 4 5 0 1 5 7 7 3 4 4 4 9 4 5 5 8 10 9 9 9 8 6 3 2 4 6 7 7 7 8 8 8 8 9 10 10 11 11 12 15 14 16
4 3 4 5 2 1 2 4 5 5 4 5 4 10 2 1 3 5 8 10 9 9 8 5 3 1 4 6 7 7 7 7 7 7 8 9 10 10 11 12 12 14 14 14
5 3 5 6 5 3 5 6 7 7 5 6 10 15 13 8 8 8 8 10 9 9 8 6 3 2 4 5 6 7 7 7 7 7 8 9 10 10 11 10 12 12 13 12
4 3 5 8 6 5 7 9 10 11 9 10 11 11 19 10 9 11 10 10 10 8 7 7 5 4 4 5 6 6 7 7 7 7 8 9 10 10 10 11 11 11 12 13
3 2 3 6 3 4 7 11 11 11 8 10 12 19 14 4 2 7 11 13 11 8 8 7 6 5 5 4 5 6 6 7 6 7 8 9 10 10 10 11 11 11 12 12
4 4 1 6 7 8 10 9 11 8 10 11 11 11 3 4 7 10 13 14 11 9 8 8 7 6 5 4 4 5 6 6 7 7 7 8 9 10 11 12 11 11 10 11
7 5 3 3 8 6 7 1 8 8 9 12 11 12 7 7 4 5 8 13 11 11 10 9 7 6 5 3 3 4 5 5 6 7 7 8 8 9 10 10 11 10 8 9
3 6 4 1 4 11 10 4 6 6 10 10 14 16 3 4 2 3 7 10 11 11 9 8 7 6 5 4 3 3 4 5 6 7 7 8 8 8 9 9 10 8 8 7
5 5 5 4 2 8 8 3 5 3 8 8 10 9 8 9 3 7 11 11 10 9 8 8 7 6 5 4 2 2 4 5 6 6 7 7 7 8 8 8 8 6 8 8
3 3 5 6 7 11 7 6 6 3 8 4 9 10 13 13 8 4 13 11 10 9 8 8 8 7 6 4 3 3 4 5 6 6 6 7 7 7 7 7 6 8 9 10
10 9 8 7 6 11 8 10 11 12 4 5 7 9 13 10 6 9 13 13 13 11 9 8 8 7 6 5 4 4 5 5 6 6 6 7 7 7 7 8 7 8 8 9
11 11 9 12 11 5 13 13 10 5 7 8 8 9 11 10 10 12 12 13 13 12 11 8 8 7 6 6 5 5 5 5 5 6 6 7 8 7 7 7 8 8 8 7
7 5 6 8 15 11 13 14 12 9 10 8 9 10 15 12 14 14 14 13 13 12 11 9 9 8 7 7 6 6 5 5 5 6 6 6 7 7 8 7 6 7 8 9
10 10 7 9 12 11 11 17 19 14 11 9 9 11 16 16 14 16 15 15 14 13 11 10 10 10 9 7 6 6 5 4 5 6 6 6 6 7 7 8 6 8 7 10
9 12 12 13 12 9 10 7 8 11 14 14 12 11 11 14 18 17 15 14 14 13 12 11 11 10 8 7 7 6 5 4 5 5 5 5 5 6 6 7 9 13 13 16
Wind_Direction
17 58 41 318 266 147 135 157 224 246 168 186 226 248 221 188 193 202 209 212 213 213 199 179 161 142 309 315 333 336 342 340 347 345 343 334 332 324 326 333 332 328 329 329
40 44 316 308 78 110 113 132 201 205 163 212 256 262 228 189 202 202 204 208 206 200 198 216 210 220 297 321 337 343 343 334 341 339 328 318 316 311 321 325 323 327 329 326
116 299 329 76 68 88 118 174 231 227 130 51 320 300 209 206 199 202 206 203 195 197 207 221 223 243 311 338 338 339 332 331 335 336 333 333 313 302 322 325 317 327 326 323
72 353 49 80 62 67 237 238 190 152 116 303 347 304 276 216 222 220 209 195 195 198 198 204 212 307 352 340 332 328 329 330 333 336 335 337 343 336 329 323 319 324 325 322
53 20 53 94 311 258 257 356 132 144 170 320 320 232 292 148 250 238 215 200 198 198 197 191 139 40 13 345 331 331 335 330 331 333 329 326 319 309 317 319 317 319 325 324
136 140 105 261 304 10 360 73 65 64 71 313 238 191 283 223 226 244 207 195 195 191 184 145 87 45 355 336 338 346 344 332 327 328 322 319 314 317 326 330 328 329 325 323
343 276 6 281 135 21 57 65 9 353 353 276 175 228 253 256 223 229 207 193 183 179 167 144 70 9 336 344 356 351 340 328 324 322 319 316 313 316 323 328 329 329 328 325
247 284 296 32 97 85 41 91 119 280 280 298 287 247 258 269 282 239 182 165 161 168 159 144 117 5 340 357 353 341 330 324 322 322 321 313 319 327 326 323 323 321 320 317
208 265 118 110 114 115 95 92 127 146 301 287 282 282 299 151 223 158 155 157 172 174 163 150 137 49 7 356 339 328 323 321 319 321 323 327 334 329 325 321 319 316 316 318
179 278 286 107 106 45 70 141 99 113 315 297 294 286 268 254 237 217 206 195 188 173 160 152 153 41 5 342 324 322 319 315 312 319 329 344 331 326 324 323 320 319 318 319
47 218 300 347 197 191 129 117 112 114 162 212 292 279 227 229 224 216 212 195 184 176 167 164 167 53 354 332 323 318 316 313 315 322 326 328 325 325 325 323 320 321 321 324
93 126 280 262 146 47 174 177 156 172 223 203 233 270 256 217 234 217 203 179 172 164 158 160 144 41 339 322 317 314 313 313 315 321 327 327 325 325 325 324 323 325 325 328
135 109 340 341 341 13 188 180 165 131 131 173 212 267 231 182 230 212 181 165 159 154 157 158 128 350 309 306 307 309 310 312 316 326 329 326 325 326 326 325 324 328 329 330
116 147 199 238 261 222 221 199 169 151 190 224 230 261 280 240 231 215 181 166 161 163 165 162 169 254 282 292 297 304 308 315 329 333 329 327 325 326 324 325 327 331 333 335
117 200 248 259 259 238 240 222 190 196 204 217 247 254 274 274 231 211 177 165 165 172 177 177 189 229 261 283 297 304 310 322 331 333 334 330 327 325 327 330 331 334 340 342
118 170 315 290 217 260 264 239 211 217 220 237 265 275 273 303 173 163 167 173 179 185 185 184 194 215 239 267 291 305 315 321 328 331 330 328 331 332 334 333 337 339 340 337
141 133 23 286 306 321 278 232 186 204 208 198 230 254 229 238 212 193 184 184 185 182 180 184 194 211 227 247 274 293 306 318 328 328 327 328 328 333 335 338 339 338 333 333
138 130 135 301 350 276 251 100 173 208 239 214 239 258 230 232 215 201 181 181 180 177 177 181 188 202 213 227 264 288 310 326 327 326 326 324 326 327 329 334 335 330 324 329
138 142 132 102 308 284 295 220 176 202 277 223 228 255 194 110 60 267 203 182 177 172 169 176 185 192 195 212 254 295 318 325 326 324 322 318 318 322 326 332 328 322 322 321
60 98 120 139 218 260 262 157 169 115 286 244 206 222 159 145 204 250 181 165 156 154 155 167 177 182 192 205 222 268 305 313 315 313 311 310 314 320 317 320 318 317 320 323
134 139 161 175 224 263 249 153 147 182 254 232 192 189 171 191 209 174 151 151 152 150 157 166 175 188 196 194 196 243 281 289 295 303 308 312 316 314 311 318 314 319 326 327
176 168 186 160 198 253 194 148 186 220 220 190 196 188 189 190 138 145 154 156 156 157 161 169 179 195 198 190 190 235 264 277 296 305 311 313 312 314 322 319 312 314 317 318
200 193 185 193 216 235 178 202 220 210 210 209 203 195 172 163 170 164 165 163 165 168 172 176 184 192 201 197 195 228 255 285 303 309 311 310 310 310 310 306 304 311 310 311
229 188 186 241 262 245 222 238 245 219 221 217 197 177 171 176 174 170 169 171 172 174 179 180 184 195 206 204 207 224 256 282 295 300 303 306 308 310 312 313 308 307 307 308
201 168 199 245 269 286 254 231 238 232 224 214 190 182 182 173 173 174 174 177 179 181 180 185 193 202 205 201 213 227 241 265 284 293 295 304 310 307 310 314 306 308 301 317
188 181 187 234 227 214 252 224 207 208 214 203 186 184 183 179 178 174 177 177 177 178 179 188 197 203 202 199 213 224 229 240 265 287 297 300 303 310 315 315 320 327 335 336
Height
1581 1587 1595 1594 1593 1592 1593 1598 1600 1600 1601 1604 1605 1602 1601 1602 1604 1605 1606 1607 1608 1609 1609 1608 1607 1604 1600 1597 1593 1589 1584 1578 1572 1566 1559 1553 1547 1542 1537 1532 1527 1521 1515 1509
1588 1594 1594 1592 1591 1592 1595 1597 1598 1600 1601 1602 1603 1600 1598 1599 1599 1600 1601 1603 1604 1606 1606 1606 1604 1602 1598 1595 1591 1587 1582 1576 1570 1564 1557 1551 1545 1539 1533 1528 1523 1517 1511 1505
1592 1596 1593 1593 1593 1593 1595 1595 1595 1598 1602 1604 1602 1596 1596 1596 1597 1598 1599 1600 1601 1603 1604 1604 1602 1600 1596 1593 1588 1584 1579 1574 1568 1561 1554 1548 1541 1534 1528 1521 1516 1512 1506 1501
1596 1595 1594 1594 1595 1594 1594 1593 1594 1598 1604 1607 1604 1605 1590 1595 1596 1594 1594 1596 1598 1600 1601 1601 1599 1597 1594 1590 1586 1582 1578 1572 1566 1559 1552 1544 1537 1530 1524 1518 1512 1507 1502 1496
1598 1596 1595 1595 1596 1595 1595 1594 1596 1599 1603 1607 1608 1610 1594 1597 1595 1590 1590 1592 1595 1597 1599 1598 1597 1594 1591 1588 1584 1580 1576 1570 1563 1556 1550 1543 1536 1529 1522 1515 1509 1502 1497 1491
1597 1596 1596 1596 1596 1596 1595 1598 1601 1606 1609 1609 1604 1609 1595 1596 1588 1584 1585 1588 1591 1594 1596 1595 1594 1592 1589 1586 1583 1578 1573 1567 1560 1554 1547 1541 1533 1526 1519 1512 1505 1498 1492 1487
1597 1597 1596 1596 1596 1596 1597 1602 1607 1604 1607 1605 1604 1603 1591 1582 1582 1581 1582 1583 1588 1591 1593 1593 1592 1589 1587 1584 1580 1575 1569 1563 1558 1551 1545 1538 1531 1524 1517 1510 1503 1496 1489 1483
1599 1602 1596 1596 1597 1599 1600 1600 1610 1612 1615 1611 1604 1601 1584 1581 1580 1580 1580 1582 1586 1588 1590 1590 1589 1587 1585 1582 1577 1572 1566 1561 1555 1548 1542 1536 1529 1523 1516 1510 1503 1496 1489 1482
1601 1600 1597 1596 1597 1598 1602 1609 1608 1616 1618 1619 1606 1594 1581 1580 1580 1579 1579 1580 1583 1585 1587 1587 1586 1584 1582 1579 1574 1569 1564 1559 1553 1546 1540 1534 1527 1521 1515 1508 1502 1496 1489 1482
1602 1603 1597 1597 1598 1600 1602 1608 1615 1616 1614 1615 1605 1597 1585 1574 1576 1577 1577 1577 1580 1582 1583 1584 1583 1582 1580 1576 1572 1567 1562 1557 1551 1545 1538 1532 1526 1520 1513 1507 1501 1494 1488 1481
1603 1605 1600 1599 1599 1600 1604 1607 1612 1620 1617 1618 1617 1591 1571 1568 1568 1569 1569 1572 1576 1579 1580 1581 1580 1579 1577 1573 1569 1565 1560 1555 1549 1543 1537 1531 1524 1518 1512 1506 1499 1493 1487 1480
1604 1608 1607 1600 1598 1597 1598 1601 1609 1611 1613 1620 1621 1591 1565 1564 1564 1564 1565 1568 1572 1575 1577 1577 1577 1576 1574 1570 1567 1563 1558 1553 1547 1541 1535 1530 1523 1517 1510 1504 1498 1492 1486 1479
1603 1607 1606 1599 1601 1600 1599 1600 1604 1609 1615 1625 1623 1584 1564 1563 1562 1562 1563 1565 1569 1571 1573 1574 1574 1573 1570 1567 1564 1561 1556 1551 1546 1540 1534 1528 1522 1515 1509 1503 1498 1491 1485 1478
1601 1606 1607 1599 1594 1594 1595 1598 1602 1605 1610 1613 1604 1576 1560 1561 1560 1559 1560 1563 1565 1568 1570 1570 1570 1569 1567 1565 1562 1559 1555 1550 1544 1539 1533 1527 1521 1515 1509 1503 1497 1491 1484 1478
1599 1604 1602 1599 1596 1596 1593 1592 1597 1599 1596 1596 1582 1576 1555 1552 1553 1553 1556 1559 1562 1564 1566 1567 1567 1566 1564 1562 1560 1557 1553 1548 1543 1538 1532 1527 1521 1515 1509 1503 1497 1491 1485 1479
1599 1601 1601 1596 1592 1594 1592 1586 1588 1589 1588 1585 1579 1566 1548 1548 1548 1548 1552 1555 1558 1561 1563 1564 1563 1562 1561 1560 1558 1555 1551 1546 1542 1537 1532 1526 1520 1514 1509 1503 1497 1491 1485 1480
1600 1600 1599 1599 1593 1588 1580 1568 1576 1575 1573 1572 1569 1554 1546 1547 1546 1545 1547 1550 1553 1557 1559 1560 1560 1559 1558 1557 1555 1552 1549 1545 1541 1536 1531 1526 1520 1514 1509 1503 1498 1492 1486 1481
1598 1600 1604 1605 1595 1581 1560 1560 1561 1562 1559 1558 1553 1545 1544 1544 1543 1543 1544 1547 1550 1553 1555 1556 1556 1556 1555 1554 1553 1550 1548 1544 1540 1535 1531 1525 1520 1515 1509 1504 1498 1493 1487 1482
1593 1597 1603 1607 1600 1585 1561 1558 1560 1560 1554 1544 1544 1539 1541 1541 1542 1540 1541 1544 1547 1549 1551 1552 1553 1553 1552 1551 1550 1548 1546 1543 1539 1534 1530 1525 1520 1515 1509 1504 1499 1494 1488 1483
1595 1597 1605 1608 1595 1584 1555 1556 1555 1558 1554 1535 1534 1534 1537 1540 1544 1536 1535 1538 1542 1545 1547 1548 1549 1550 1549 1548 1547 1546 1544 1541 1537 1533 1529 1525 1521 1516 1510 1504 1499 1494 1489 1484
1598 1600 1603 1605 1599 1574 1552 1552 1556 1559 1544 1530 1528 1529 1530 1531 1531 1530 1531 1534 1538 1541 1543 1545 1546 1546 1546 1545 1545 1544 1542 1539 1536 1532 1528 1525 1521 1516 1511 1506 1500 1495 1490 1485
1582 1591 1596 1598 1597 1570 1545 1548 1548 1536 1526 1525 1525 1524 1523 1523 1525 1526 1528 1531 1534 1537 1539 1541 1543 1543 1543 1543 1542 1541 1540 1538 1534 1531 1528 1524 1520 1516 1511 1506 1501 1496 1490 1484
1566 1561 1563 1562 1549 1533 1530 1527 1524 1523 1522 1520 1520 1519 1519 1519 1520 1522 1525 1528 1531 1534 1536 1538 1540 1540 1540 1540 1539 1539 1538 1536 1533 1530 1527 1524 1520 1516 1511 1506 1501 1496 1490 1484
1553 1550 1553 1552 1532 1523 1523 1520 1518 1517 1516 1515 1515 1514 1514 1513 1515 1518 1521 1524 1527 1530 1533 1535 1536 1536 1537 1537 1536 1536 1535 1534 1532 1529 1526 1523 1519 1515 1511 1506 1501 1495 1489 1483
1536 1543 1544 1540 1523 1517 1511 1510 1509 1509 1509 1508 1507 1507 1508 1509 1510 1513 1516 1519 1522 1526 1529 1531 1532 1533 1533 1533 1533 1533 1533 1532 1530 1528 1525 1522 1518 1514 1510 1506 1501 1495 1490 1486
1525 1527 1530 1519 1509 1509 1505 1504 1503 1502 1502 1501 1501 1500 1501 1503 1505 1508 1511 1514 1518 1521 1524 1527 1528 1529 1529 1530 1530 1530 1530 1529 1528 1526 1524 1521 1517 1513 1509 1504 1501 1497 1492 1487